Flag for New Zealand Weather past 2 weeks in Christchurch, New Zealand

Now
73 °F

Mild.


Feels Like: 77 °F
Forecast: 53 / 62 °F
Wind: 8 mph from Northwest

Location: Christchurch Airport

Current Time: Mar 29, 2015 at 3:11:36 PM

Latest Report: Mar 29, 2015 at 2:30 PM


Visibility: N/A

Pressure: 29.56 "Hg

Humidity: 38%

Dew point: 46 °F

Location of ChristchurchLocation

Historic Weather in Christchurch — Graph

°F

Christchurch temperature yesterday

Maximum temperature yesterday: 66 °F (at 2:00 PM)
Minimum temperature yesterday: 55 °F (at 7:30 AM)
Average temperature yesterday: 60 °F

Past Weeks' High & Low Weather Summary

 TemperatureHumidityPressure
High73 °F (Mar 24, 1:30 PM)100% (Mar 16, 1:30 PM)30.30 "Hg (Mar 16, 1:30 PM)
Low43 °F (Mar 20, 8:00 AM)36% (Mar 29, 2:00 PM)29.53 "Hg (Mar 16, 4:30 AM)
Average57 °F80%29.95 "Hg
* Reported Mar 14 2:00 PM — Mar 29 2:00 PM, Christchurch, Weather by CustomWeather, © 2015

Note: Actual official high and low records may vary slightly from our data, if they occured in-between our weather recording intervals... More about our weather records

Advertising

Christchurch weather history for previous 24 hours

 ConditionsComfort  
Time TempWeatherWind HumidityBarometerVisibility
2:00 PM
Sun, Mar 29
73 °FMild.8 mph36%29.59 "HgN/A
1:30 PM73 °FMild.12 mph38%29.59 "HgN/A
1:00 PM73 °FMild.12 mph38%29.59 "HgN/A
12:30 PM72 °FMild.15 mph44%29.59 "HgN/A
12:00 PM68 °FMild.15 mph46%29.62 "HgN/A
11:30 AM63 °FMild.8 mph68%29.62 "HgN/A
11:00 AM57 °FSprinkles. Broken clouds.6 mph82%29.65 "HgN/A
10:30 AM57 °FSprinkles. Partly sunny.2 mph88%29.65 "HgN/A
10:00 AM57 °FLight rain. Partly sunny.7 mph88%29.65 "HgN/A
9:30 AM55 °FSprinkles. Overcast.2 mph88%29.68 "HgN/A
9:00 AM57 °FSprinkles. Partly sunny.12 mph77%29.68 "HgN/A
8:30 AM59 °FDrizzle. Partly sunny.12 mph68%29.68 "HgN/A
8:00 AM55 °FCool.3 mph77%29.62 "HgN/A
7:30 AM57 °FCool.5 mph72%29.62 "HgN/A
7:00 AM55 °FCool.2 mph77%29.62 "HgN/A
6:30 AM55 °FCool.1 mph77%29.62 "HgN/A
6:00 AM54 °FCool.1 mph82%29.62 "HgN/A
5:30 AM59 °FPassing clouds.2 mph68%29.62 "HgN/A
5:00 AM59 °FPassing clouds.7 mph72%29.62 "HgN/A
4:30 AM59 °FCool.8 mph72%29.62 "HgN/A
4:00 AM63 °FMild.5 mph64%29.65 "HgN/A
3:30 AM64 °FMild.7 mph60%29.65 "HgN/A
3:00 AM64 °FSprinkles. Passing clouds.12 mph60%29.65 "HgN/A
2:30 AM63 °FPassing clouds.12 mph68%29.65 "HgN/A
2:00 AM61 °FSprinkles. Passing clouds.7 mph77%29.65 "HgN/A
1:30 AM57 °FPassing clouds.7 mph94%29.65 "HgN/A
1:00 AM55 °FFog.5 mph100%29.68 "Hg3 mi
12:30 AM57 °FFog.3 mph100%29.68 "Hg0 mi
12:00 AM57 °FPassing clouds.3 mph100%29.68 "Hg1 mi
11:30 PM
Sat, Mar 28
57 °FFog.5 mph100%29.68 "Hg2 mi
11:00 PM57 °FFog.8 mph100%29.68 "Hg3 mi
10:30 PM57 °FPassing clouds.7 mph100%29.68 "Hg4 mi
10:00 PM59 °FLow clouds.6 mph100%29.71 "Hg5 mi
9:30 PM59 °FLow clouds.6 mph100%29.71 "Hg5 mi
9:00 PM59 °FLow clouds.7 mph94%29.68 "HgN/A
8:30 PM59 °FPassing clouds.10 mph94%29.68 "HgN/A
8:00 PM61 °FPassing clouds.9 mph88%29.71 "HgN/A
7:30 PM61 °FPassing clouds.10 mph88%29.71 "HgN/A
7:00 PM61 °FScattered clouds.13 mph88%29.71 "HgN/A
6:30 PM63 °FPassing clouds.13 mph83%29.71 "HgN/A
6:00 PM61 °FPartly sunny.13 mph83%29.71 "HgN/A
5:30 PM61 °FPartly sunny.14 mph83%29.74 "HgN/A
5:00 PM63 °FPartly sunny.16 mph77%29.74 "HgN/A
4:30 PM63 °FPassing clouds.17 mph77%29.74 "HgN/A
4:00 PM63 °FPartly sunny.17 mph77%29.74 "HgN/A
3:30 PM64 °FPartly sunny.18 mph73%29.77 "HgN/A
3:00 PM64 °FPartly sunny.18 mph73%29.77 "HgN/A
Weather by CustomWeather, © 2015

See weather overviewHow to use our weather pages